Change the Weather History Date:

Monday, October 10, 2011

  Actual Average Record
Temperature  
Mean Temperature 50 °F -  
Max Temperature 64 °F 65 °F 86 °F (1996)
Min Temperature 37 °F 37 °F 29 °F (1982)
Degree Days  
Heating Degree Days 14    
Moisture  
Dew Point 38 °F    
Average Humidity 74    
Maximum Humidity 93    
Minimum Humidity 34    
Precipitation  
Precipitation 0.00 in - - ()
Sea Level Pressure  
Sea Level Pressure 30.02 in    
Wind  
Wind Speed 3 mph (ESE)    
Max Wind Speed 16 mph    
Max Gust Speed 23 mph    
Visibility 11 miles    
Events      
Averages and records for this station are not official NWS values.
T = Trace of Precipitation, MM = Missing Value Source: NWS Daily Summary

Daily Weather History Graph

Daily Weather History Graph

Search for Another Location

Airport or City:

Trip Planner

Search our weather history database for the weather conditions in past years. The results will help you decide how hot, cold, wet, or windy it might be!

Date:

Astronomy

Oct. 10, 2011 Rise Set
Actual Time 7:32 AM MDT 6:55 PM MDT
Civil Twilight 7:04 AM MDT 7:22 PM MDT
Nautical Twilight 6:33 AM MDT 7:53 PM MDT
Astronomical Twilight 6:01 AM MDT 8:25 PM MDT
Moon 6:00 PM MDT (10/10) 6:16 AM MDT (10/10)
Length of Visible Light 12h 17m
Length of Day
11h 22m
Waxing Gibbous, 98% of the Moon is Illuminated
Oct 10
Waxing Gibbous
Oct 11
Full
Oct 19
Last Quarter
Oct 26
New
Nov 2
First Quarter

Hourly Weather History & Observations

Time (MDT) Temp. Windchill Dew Point Humidity Pressure Visibility Wind Dir Wind Speed Gust Speed Precip Events Conditions
12:15 AM 41.0 °F - 37.4 °F 87% 30.05 in 10.0 mi Calm Calm - N/A   Clear
12:35 AM 41.0 °F - 35.6 °F 81% 30.06 in 10.0 mi Calm Calm - N/A   Clear
12:55 AM 39.2 °F - 33.8 °F 81% 30.06 in 10.0 mi Calm Calm - N/A   Clear
1:15 AM 41.0 °F - 35.6 °F 81% 30.06 in 10.0 mi Calm Calm - N/A   Clear
1:35 AM 41.0 °F 36.4 °F 35.6 °F 81% 30.07 in 10.0 mi ESE 6.9 mph - N/A   Clear
1:55 AM 42.8 °F 37.0 °F 35.6 °F 76% 30.07 in 10.0 mi ESE 10.4 mph - N/A   Clear
2:35 AM 41.0 °F 38.0 °F 35.6 °F 81% 30.07 in 10.0 mi SE 4.6 mph - N/A   Clear
2:55 AM 39.2 °F 35.0 °F 35.6 °F 87% 30.06 in 10.0 mi SE 5.8 mph - N/A   Clear
3:15 AM 39.2 °F 35.0 °F 35.6 °F 87% 30.06 in 10.0 mi SSE 5.8 mph - N/A   Clear
3:35 AM 39.2 °F 37.0 °F 35.6 °F 87% 30.06 in 10.0 mi East 3.5 mph - N/A   Clear
3:55 AM 39.2 °F 35.0 °F 35.6 °F 87% 30.05 in 10.0 mi ESE 5.8 mph - N/A   Clear
4:15 AM 39.2 °F 35.9 °F 35.6 °F 87% 30.05 in 10.0 mi SE 4.6 mph - N/A   Clear
4:35 AM 37.4 °F 34.9 °F 35.6 °F 93% 30.04 in 10.0 mi ENE 3.5 mph - N/A   Clear
4:55 AM 37.4 °F - 35.6 °F 93% 30.04 in 10.0 mi Calm Calm - N/A   Clear
5:15 AM 37.4 °F 34.9 °F 33.8 °F 87% 30.04 in 10.0 mi NNW 3.5 mph - N/A   Clear
5:35 AM 37.4 °F 34.9 °F 33.8 °F 87% 30.05 in 10.0 mi NNW 3.5 mph - N/A   Clear
5:55 AM 37.4 °F - 33.8 °F 87% 30.05 in 10.0 mi Calm Calm - N/A   Clear
6:35 AM 39.2 °F 35.0 °F 33.8 °F 81% 30.05 in 10.0 mi ESE 5.8 mph - N/A   Clear
7:50 AM 37.4 °F 34.9 °F 35.6 °F 93% 30.06 in 15.0 mi NNE 3.5 mph - N/A   Scattered Clouds
9:49 AM 46.4 °F 44.3 °F 37.4 °F 71% 30.06 in 15.0 mi East 4.6 mph - N/A   Scattered Clouds
10:48 AM 51.8 °F - 37.4 °F 58% 30.06 in 15.0 mi ESE 8.1 mph - N/A   Mostly Cloudy
11:56 AM 55.4 °F - 37.4 °F 51% 30.04 in 15.0 mi ESE 4.6 mph - N/A   Scattered Clouds
12:53 PM 57.2 °F - 37.4 °F 48% 30.02 in 15.0 mi Calm Calm - N/A   Mostly Cloudy
1:50 PM 62.6 °F - 37.4 °F 39% 29.99 in 15.0 mi Variable 5.8 mph - N/A   Mostly Cloudy
2:50 PM 64.4 °F - 37.4 °F 37% 29.96 in 15.0 mi Variable 5.8 mph - N/A   Mostly Cloudy
3:57 PM 62.6 °F - 33.8 °F 34% 29.94 in 15.0 mi Calm Calm - N/A   Overcast
4:47 PM 62.6 °F - 37.4 °F 39% 29.94 in 15.0 mi Calm Calm - N/A   Overcast
5:50 PM 59.0 °F - 42.8 °F 55% 29.95 in 15.0 mi Variable 5.8 mph - N/A   Overcast
6:50 PM 59.0 °F - 35.6 °F 42% 29.95 in 10.0 mi SSW 16.1 mph 23.0 mph N/A   Overcast
7:50 PM 53.6 °F - 39.2 °F 58% 29.99 in 10.0 mi Variable 5.8 mph - N/A   Overcast
9:35 PM 50.0 °F - 44.6 °F 82% 29.99 in 10.0 mi Calm Calm - N/A   Clear
9:55 PM 51.8 °F - 44.6 °F 76% 30.00 in 10.0 mi Calm Calm - N/A   Mostly Cloudy
10:15 PM 51.8 °F - 42.8 °F 71% 30.00 in 10.0 mi Calm Calm - N/A   Mostly Cloudy
10:35 PM 51.8 °F - 44.6 °F 76% 30.00 in 10.0 mi Calm Calm - N/A   Mostly Cloudy
10:55 PM 50.0 °F - 46.4 °F 87% 29.99 in 10.0 mi East 4.6 mph - N/A   Overcast
11:35 PM 50.0 °F - 46.4 °F 87% 29.99 in 10.0 mi SSW 4.6 mph - N/A   Overcast
11:55 PM 50.0 °F - 46.4 °F 87% 29.99 in 10.0 mi Calm Calm - N/A   Overcast